| time (UTC) | temp F | wind direction | speed MPH | gust MPH | rain 1hr in | rain 24hr in | rain mn in | humidity % | barometer mb |
| 20260510151840 | 56 | 38 | 11.0 | 22.0 | 0.00 | 0.00 | 0.00 | 48 | 1013.0 |
| 20260510150839 | 55 | 38 | 11.0 | 22.0 | 0.00 | 0.00 | 0.00 | 50 | 1013.0 |
| 20260510145838 | 56 | 42 | 11.0 | 22.0 | 0.00 | 0.00 | 0.00 | 51 | 1013.2 |
| 20260510144837 | 55 | 42 | 12.0 | 22.0 | 0.00 | 0.00 | 0.00 | 49 | 1013.3 |
| 20260510143837 | 56 | 40 | 12.0 | 23.0 | 0.00 | 0.00 | 0.00 | 49 | 1013.4 |
| 20260510142835 | 56 | 40 | 12.0 | 24.0 | 0.00 | 0.00 | 0.00 | 48 | 1013.5 |
| 20260510141835 | 56 | 40 | 12.0 | 24.0 | 0.00 | 0.00 | 0.00 | 51 | 1013.6 |
| 20260510140834 | 57 | 40 | 12.0 | 24.0 | 0.00 | 0.00 | 0.00 | 50 | 1013.6 |
| 20260510135833 | 56 | 40 | 13.0 | 24.0 | 0.00 | 0.00 | 0.00 | 51 | 1013.7 |
| 20260510134833 | 56 | 40 | 13.0 | 24.0 | 0.00 | 0.00 | 0.00 | 49 | 1013.7 |
| 20260510133833 | 55 | 40 | 13.0 | 25.0 | 0.00 | 0.00 | 0.00 | 50 | 1013.8 |
| 20260510132831 | 56 | 40 | 13.0 | 25.0 | 0.00 | 0.00 | 0.00 | 51 | 1013.9 |
| 20260510131831 | 56 | 40 | 13.0 | 25.0 | 0.00 | 0.00 | 0.00 | 50 | 1013.9 |
| 20260510130830 | 55 | 40 | 13.0 | 25.0 | 0.00 | 0.00 | 0.00 | 51 | 1014.0 |
| 20260510125829 | 55 | 38 | 13.0 | 25.0 | 0.00 | 0.00 | 0.00 | 53 | 1014.1 |
| 20260510124828 | 55 | 38 | 13.0 | 25.0 | 0.00 | 0.00 | 0.00 | 53 | 1014.3 |
| 20260510123828 | 54 | 35 | 13.0 | 25.0 | 0.00 | 0.00 | 0.00 | 56 | 1014.4 |
| 20260510122827 | 55 | 33 | 13.0 | 25.0 | 0.00 | 0.00 | 0.00 | 55 | 1014.5 |
| 20260510121826 | 55 | 33 | 13.0 | 25.0 | 0.00 | 0.00 | 0.00 | 56 | 1014.6 |
| 20260510120825 | 55 | 30 | 13.0 | 24.0 | 0.00 | 0.00 | 0.00 | 55 | 1014.6 |
| 20260510115824 | 55 | 33 | 12.0 | 24.0 | 0.00 | 0.00 | 0.00 | 57 | 1014.6 |
| 20260510114822 | 54 | 33 | 12.0 | 24.0 | 0.00 | 0.00 | 0.00 | 60 | 1014.8 |
| 20260510113822 | 53 | 35 | 12.0 | 23.0 | 0.00 | 0.00 | 0.00 | 60 | 1014.9 |
| 20260510112822 | 54 | 38 | 12.0 | 24.0 | 0.00 | 0.00 | 0.00 | 60 | 1014.9 |
| 20260510111820 | 54 | 32 | 12.0 | 24.0 | 0.00 | 0.00 | 0.00 | 60 | 1015.0 |
| 20260510110819 | 54 | 34 | 12.0 | 23.0 | 0.00 | 0.00 | 0.00 | 61 | 1015.0 |
| 20260510105819 | 54 | 34 | 12.0 | 22.0 | 0.00 | 0.00 | 0.00 | 63 | 1015.1 |
| 20260510104817 | 54 | 34 | 12.0 | 22.0 | 0.00 | 0.00 | 0.00 | 62 | 1015.2 |
| 20260510103817 | 53 | 32 | 12.0 | 23.0 | 0.00 | 0.00 | 0.00 | 66 | 1015.3 |
| 20260510102816 | 53 | 33 | 12.0 | 22.0 | 0.00 | 0.00 | 0.00 | 64 | 1015.2 |
| 20260510101814 | 53 | 33 | 12.0 | 22.0 | 0.00 | 0.00 | 0.00 | 65 | 1015.2 |
| 20260510100814 | 53 | 34 | 11.0 | 22.0 | 0.00 | 0.00 | 0.00 | 64 | 1015.2 |
| 20260510095813 | 53 | 35 | 11.0 | 22.0 | 0.00 | 0.00 | 0.00 | 65 | 1015.3 |
| 20260510094813 | 53 | 35 | 11.0 | 22.0 | 0.00 | 0.00 | 0.00 | 66 | 1015.4 |
| 20260510093812 | 53 | 35 | 12.0 | 22.0 | 0.00 | 0.00 | 0.00 | 65 | 1015.4 |
| 20260510092811 | 53 | 36 | 12.0 | 22.0 | 0.00 | 0.00 | 0.00 | 64 | 1015.5 |
| 20260510091811 | 53 | 34 | 13.0 | 24.0 | 0.00 | 0.00 | 0.00 | 64 | 1015.5 |
| 20260510090811 | 53 | 36 | 13.0 | 24.0 | 0.00 | 0.00 | 0.00 | 66 | 1015.6 |
| 20260510085810 | 53 | 36 | 12.0 | 24.0 | 0.00 | 0.00 | 0.00 | 66 | 1015.6 |
| 20260510084809 | 53 | 37 | 12.0 | 22.0 | 0.00 | 0.00 | 0.00 | 65 | 1015.5 |
| 20260510083809 | 53 | 35 | 12.0 | 22.0 | 0.00 | 0.00 | 0.00 | 66 | 1015.5 |
| 20260510082809 | 53 | 34 | 12.0 | 22.0 | 0.00 | 0.00 | 0.00 | 67 | 1015.6 |
| 20260510081807 | 53 | 34 | 12.0 | 22.0 | 0.00 | 0.00 | 0.00 | 66 | 1015.6 |
| 20260510080807 | 54 | 32 | 12.0 | 23.0 | 0.00 | 0.00 | 0.00 | 66 | 1015.6 |
| 20260510075807 | 53 | 32 | 12.0 | 22.0 | 0.00 | 0.00 | 0.00 | 70 | 1015.5 |
| 20260510074806 | 53 | 32 | 12.0 | 22.0 | 0.00 | 0.00 | 0.00 | 72 | 1015.4 |
| 20260510073804 | 53 | 32 | 12.0 | 22.0 | 0.00 | 0.00 | 0.00 | 72 | 1015.4 |
| 20260510072803 | 53 | 32 | 12.0 | 22.0 | 0.00 | 0.00 | 0.00 | 73 | 1015.6 |
| 20260510071802 | 53 | 32 | 12.0 | 22.0 | 0.00 | 0.00 | 0.00 | 72 | 1015.6 |
| 20260510070802 | 53 | 32 | 11.0 | 21.0 | 0.00 | 0.00 | 0.00 | 73 | 1015.5 |
| 20260510065802 | 52 | 30 | 11.0 | 21.0 | 0.00 | 0.00 | 0.00 | 73 | 1015.4 |
| 20260510064800 | 52 | 30 | 11.0 | 21.0 | 0.00 | 0.00 | 0.00 | 75 | 1015.4 |
| 20260510063800 | 51 | 27 | 11.0 | 20.0 | 0.00 | 0.00 | 0.00 | 77 | 1015.5 |
| 20260510062759 | 51 | 25 | 10.0 | 19.0 | 0.00 | 0.00 | 0.00 | 79 | 1015.4 |
| 20260510061758 | 50 | 25 | 10.0 | 19.0 | 0.00 | 0.00 | 0.00 | 80 | 1015.4 |
| 20260510060758 | 50 | 22 | 10.0 | 18.0 | 0.00 | 0.00 | 0.00 | 81 | 1015.4 |
| 20260510055757 | 50 | 21 | 9.0 | 17.0 | 0.00 | 0.00 | 0.00 | 81 | 1015.3 |
| 20260510054756 | 50 | 21 | 9.0 | 17.0 | 0.00 | 0.00 | 0.00 | 82 | 1015.2 |
| 20260510053755 | 49 | 19 | 8.0 | 16.0 | 0.00 | 0.00 | 0.00 | 82 | 1015.1 |
| 20260510052755 | 49 | 18 | 8.0 | 15.0 | 0.00 | 0.00 | 0.00 | 82 | 1015.1 |
| 20260510051754 | 48 | 18 | 8.0 | 15.0 | 0.00 | 0.00 | 0.00 | 83 | 1015.1 |
| 20260510050754 | 48 | 16 | 7.0 | 14.0 | 0.00 | 0.00 | 0.00 | 85 | 1015.1 |
| 20260510045753 | 48 | 17 | 7.0 | 14.0 | 0.00 | 0.00 | 0.00 | 87 | 1015.1 |
| 20260510044752 | 47 | 19 | 8.0 | 14.0 | 0.00 | 0.00 | 0.00 | 87 | 1015.1 |
| 20260510043752 | 47 | 19 | 8.0 | 15.0 | 0.00 | 0.00 | 0.00 | 88 | 1015.1 |
| 20260510042751 | 47 | 20 | 8.0 | 16.0 | 0.00 | 0.00 | 0.00 | 87 | 1015.1 |
| 20260510041750 | 47 | 20 | 8.0 | 16.0 | 0.00 | 0.00 | 0.00 | 87 | 1015.2 |
| 20260510040750 | 47 | 20 | 9.0 | 17.0 | 0.00 | 0.00 | 0.00 | 86 | 1015.3 |
| 20260510035750 | 48 | 21 | 8.0 | 16.0 | 0.00 | 0.00 | 0.00 | 86 | 1015.5 |
| 20260510034749 | 47 | 21 | 8.0 | 16.0 | 0.00 | 0.00 | 0.00 | 90 | 1018.4 |
| 20260510033746 | 48 | 21 | 8.0 | 16.0 | 0.00 | 0.00 | 0.00 | 89 | 1018.5 |
| 20260510032742 | 48 | 20 | 8.0 | 16.0 | 0.00 | 0.00 | 0.00 | 89 | 1018.6 |
| 20260510031738 | 48 | 20 | 8.0 | 16.0 | 0.00 | 0.00 | 0.00 | 89 | 1018.6 |
| 20260510030734 | 48 | 20 | 8.0 | 16.0 | 0.00 | 0.00 | 0.00 | 89 | 1018.7 |
| 20260510025730 | 49 | 18 | 8.0 | 16.0 | 0.00 | 0.00 | 0.00 | 89 | 1018.7 |
| 20260510024727 | 48 | 20 | 8.0 | 15.0 | 0.00 | 0.00 | 0.00 | 90 | 1019.0 |
| 20260510023722 | 48 | 17 | 9.0 | 17.0 | 0.00 | 0.00 | 0.00 | 90 | 1018.8 |
| 20260510022719 | 48 | 15 | 9.0 | 17.0 | 0.00 | 0.00 | 0.00 | 90 | 1019.0 |
| 20260510021715 | 48 | 15 | 9.0 | 17.0 | 0.00 | 0.00 | 0.00 | 90 | 1019.0 |
| 20260510020711 | 48 | 12 | 9.0 | 17.0 | 0.00 | 0.00 | 0.00 | 91 | 1019.1 |
| 20260510015706 | 48 | 13 | 8.0 | 16.0 | 0.00 | 0.00 | 0.00 | 92 | 1019.2 |
| 20260510014703 | 48 | 13 | 8.0 | 16.0 | 0.00 | 0.00 | 0.00 | 92 | 1019.2 |
| 20260510013659 | 48 | 14 | 8.0 | 15.0 | 0.00 | 0.00 | 0.00 | 92 | 1019.2 |
| 20260510012656 | 48 | 15 | 7.0 | 14.0 | 0.00 | 0.00 | 0.00 | 93 | 1019.2 |
| 20260510011652 | 48 | 15 | 7.0 | 14.0 | 0.00 | 0.00 | 0.00 | 93 | 1019.2 |
| 20260510010648 | 48 | 16 | 7.0 | 14.0 | 0.00 | 0.00 | 0.00 | 93 | 1019.2 |
| 20260510005645 | 48 | 15 | 7.0 | 13.0 | 0.00 | 0.00 | 0.00 | 93 | 1019.2 |
| 20260510004641 | 48 | 15 | 7.0 | 13.0 | 0.00 | 0.00 | 0.00 | 93 | 1019.2 |
| 20260510003637 | 48 | 14 | 7.0 | 13.0 | 0.00 | 0.00 | 0.00 | 94 | 1019.3 |
| 20260510002633 | 47 | 12 | 7.0 | 13.0 | 0.00 | 0.00 | 0.00 | 95 | 1019.1 |
| 20260510001629 | 47 | 12 | 7.0 | 13.0 | 0.00 | 0.00 | 0.00 | 95 | 1019.1 |
| 20260510000625 | 47 | 12 | 7.0 | 13.0 | 0.00 | 0.00 | 0.00 | 94 | 1019.1 |
| 20260509235621 | 46 | 11 | 6.0 | 12.0 | 0.00 | 0.00 | 0.00 | 92 | 1019.1 |
| 20260509234617 | 46 | 11 | 6.0 | 12.0 | 0.00 | 0.00 | 0.00 | 92 | 1019.1 |
| 20260509233613 | 46 | 9 | 6.0 | 12.0 | 0.00 | 0.00 | 0.00 | 89 | 1019.1 |
| 20260509232610 | 45 | 5 | 5.0 | 11.0 | 0.00 | 0.00 | 0.00 | 86 | 1019.0 |
| 20260509231606 | 45 | 5 | 5.0 | 11.0 | 0.00 | 0.00 | 0.00 | 84 | 1019.2 |
| 20260509230602 | 45 | 4 | 5.0 | 10.0 | 0.00 | 0.00 | 0.00 | 81 | 1019.2 |
| 20260509225558 | 46 | 13 | 5.0 | 9.0 | 0.00 | 0.00 | 0.00 | 79 | 1019.2 |
| 20260509224554 | 46 | 9 | 5.0 | 9.0 | 0.00 | 0.00 | 0.00 | 75 | 1019.3 |
| 20260509223550 | 47 | 18 | 4.0 | 9.0 | 0.00 | 0.00 | 0.00 | 73 | 1019.2 |
| 20260509222546 | 47 | 27 | 4.0 | 9.0 | 0.00 | 0.00 | 0.00 | 71 | 1019.1 |
| 20260509221543 | 47 | 27 | 4.0 | 9.0 | 0.00 | 0.00 | 0.00 | 71 | 1019.1 |
| 20260509220538 | 48 | 36 | 4.0 | 8.0 | 0.00 | 0.00 | 0.00 | 70 | 1019.0 |
| 20260509215534 | 48 | 36 | 4.0 | 8.0 | 0.00 | 0.00 | 0.00 | 69 | 1018.9 |
| 20260509214531 | 48 | 36 | 4.0 | 8.0 | 0.00 | 0.00 | 0.00 | 69 | 1018.9 |
| 20260509213527 | 48 | 35 | 4.0 | 9.0 | 0.00 | 0.00 | 0.00 | 69 | 1018.8 |
| 20260509212522 | 48 | 25 | 4.0 | 9.0 | 0.00 | 0.00 | 0.00 | 71 | 1018.6 |
| 20260509211519 | 48 | 25 | 4.0 | 9.0 | 0.00 | 0.00 | 0.00 | 71 | 1018.6 |
| 20260509210515 | 49 | 30 | 5.0 | 9.0 | 0.00 | 0.00 | 0.00 | 71 | 1018.6 |
| 20260509205512 | 49 | 41 | 5.0 | 10.0 | 0.00 | 0.00 | 0.00 | 70 | 1018.6 |
| 20260509204507 | 49 | 41 | 5.0 | 10.0 | 0.00 | 0.00 | 0.00 | 70 | 1018.6 |
| 20260509203504 | 50 | 53 | 5.0 | 10.0 | 0.00 | 0.00 | 0.00 | 70 | 1018.5 |
| 20260509202500 | 50 | 63 | 5.0 | 10.0 | 0.00 | 0.00 | 0.00 | 69 | 1018.6 |
| 20260509201457 | 51 | 72 | 5.0 | 10.0 | 0.00 | 0.00 | 0.00 | 67 | 1018.6 |
| 20260509200454 | 51 | 72 | 5.0 | 10.0 | 0.00 | 0.00 | 0.00 | 67 | 1018.6 |
| 20260509195449 | 52 | 74 | 5.0 | 10.0 | 0.00 | 0.00 | 0.00 | 64 | 1018.5 |
| 20260509194445 | 53 | 76 | 5.0 | 11.0 | 0.00 | 0.00 | 0.00 | 61 | 1018.1 |
| 20260509193442 | 53 | 76 | 5.0 | 11.0 | 0.00 | 0.00 | 0.00 | 61 | 1018.1 |
| 20260509192438 | 55 | 78 | 5.0 | 11.0 | 0.00 | 0.00 | 0.00 | 57 | 1018.0 |
| 20260509191434 | 56 | 80 | 6.0 | 12.0 | 0.00 | 0.00 | 0.00 | 54 | 1017.9 |
| 20260509190431 | 56 | 80 | 6.0 | 12.0 | 0.00 | 0.00 | 0.00 | 54 | 1017.9 |
| 20260509185427 | 57 | 79 | 7.0 | 13.0 | 0.00 | 0.00 | 0.00 | 52 | 1017.8 |
| 20260509184423 | 58 | 78 | 8.0 | 15.0 | 0.00 | 0.00 | 0.00 | 50 | 1017.7 |
| 20260509183418 | 58 | 76 | 8.0 | 15.0 | 0.00 | 0.00 | 0.00 | 50 | 1017.7 |
| 20260509182415 | 59 | 76 | 8.0 | 16.0 | 0.00 | 0.00 | 0.00 | 48 | 1017.5 |
| 20260509181411 | 60 | 76 | 9.0 | 17.0 | 0.00 | 0.00 | 0.00 | 46 | 1017.5 |
| 20260509180408 | 60 | 76 | 9.0 | 17.0 | 0.00 | 0.00 | 0.00 | 46 | 1017.5 |
| 20260509175403 | 63 | 78 | 9.0 | 17.0 | 0.00 | 0.00 | 0.00 | 34 | 1014.4 |
| 20260509174403 | 63 | 79 | 9.0 | 17.0 | 0.00 | 0.00 | 0.00 | 33 | 1014.5 |
| 20260509173403 | 64 | 79 | 9.0 | 17.0 | 0.00 | 0.00 | 0.00 | 33 | 1014.4 |
| 20260509172402 | 64 | 80 | 8.0 | 16.0 | 0.00 | 0.00 | 0.00 | 32 | 1014.4 |
| 20260509171401 | 64 | 82 | 8.0 | 16.0 | 0.00 | 0.00 | 0.00 | 33 | 1014.5 |
| 20260509170401 | 65 | 82 | 8.0 | 16.0 | 0.00 | 0.00 | 0.00 | 33 | 1014.5 |
| 20260509165359 | 65 | 83 | 8.0 | 16.0 | 0.00 | 0.00 | 0.00 | 32 | 1014.4 |
| 20260509164359 | 65 | 83 | 9.0 | 17.0 | 0.00 | 0.00 | 0.00 | 33 | 1014.5 |
| 20260509163358 | 65 | 83 | 9.0 | 17.0 | 0.00 | 0.00 | 0.00 | 32 | 1014.5 |
| 20260509162357 | 66 | 83 | 9.0 | 17.0 | 0.00 | 0.00 | 0.00 | 31 | 1014.4 |
| 20260509160357 | 66 | 82 | 9.0 | 17.0 | 0.00 | 0.00 | 0.00 | 31 | 1014.5 |
| 20260509155355 | 67 | 81 | 9.0 | 17.0 | 0.00 | 0.00 | 0.00 | 30 | 1014.5 |
| 20260509154355 | 67 | 79 | 9.0 | 18.0 | 0.00 | 0.00 | 0.00 | 30 | 1014.4 |
| 20260509153354 | 67 | 79 | 9.0 | 18.0 | 0.00 | 0.00 | 0.00 | 29 | 1014.2 |
| 20260509152353 | 68 | 85 | 9.0 | 18.0 | 0.00 | 0.00 | 0.00 | 29 | 1014.1 |